Weather History for Detroit Lakes, MN

Change the Weather History Date:

Sunday, September 2, 2012

  Actual Average Record
Temperature  
Mean Temperature 77 °F -  
Max Temperature 86 °F 75 °F 95 °F (1983)
Min Temperature 66 °F 49 °F 32 °F (1968)
Cooling Degree Days 12    
Growing Degree Days 27 (Base 50)    
Moisture  
Dew Point 58 °F    
Average Humidity 57    
Maximum Humidity 78    
Minimum Humidity 45    
Precipitation  
Precipitation 0.00 in - - ()
Sea Level Pressure  
Sea Level Pressure 29.86 in    
Wind  
Wind Speed 14 mph (South)    
Max Wind Speed 21 mph    
Max Gust Speed 28 mph    
Visibility 10 miles    
Events      
Averages and records for this station are not official NWS values.
T = Trace of Precipitation, MM = Missing Value Source: NWS Daily Summary

Daily Weather History Graph

Daily Weather History Graph

Search for Another Location

Airport:

Trip Planner

Search our weather history database for the weather conditions in past years. The results will help you decide how hot, cold, wet, or windy it might be!

Date:

Astronomy

Sep. 02, 2012 Rise Set
Actual Time 6:45 AM CDT 7:59 PM CDT
Civil Twilight 6:13 AM CDT 8:31 PM CDT
Nautical Twilight 5:36 AM CDT 9:08 PM CDT
Astronomical Twilight 4:55 AM CDT 9:48 PM CDT
Moon 8:33 PM CDT (9/2) 9:07 AM CDT (9/2)
Length of Visible Light 14h 17m
Length of Day
13h 14m
Waning Gibbous, 95% of the Moon is Illuminated
Sep 2
Waning Gibbous
Sep 8
Last Quarter
Sep 15
New
Sep 22
First Quarter
Sep 29
Full

Hourly Weather History & Observations

Time (CDT) Temp. Heat Index Dew Point Humidity Pressure Visibility Wind Dir Wind Speed Gust Speed Precip Events Conditions
12:13 AM 69.8 °F - 51.8 °F 53% 29.96 in 10.0 mi SSE 18.4 mph 21.9 mph N/A   Clear
12:32 AM 68.0 °F - 51.8 °F 56% 29.95 in 10.0 mi SSE 15.0 mph 23.0 mph N/A   Clear
12:52 AM 68.0 °F - 51.8 °F 56% 29.94 in 10.0 mi SSE 15.0 mph - N/A   Clear
1:13 AM 68.0 °F - 51.8 °F 56% 29.94 in 10.0 mi SSE 15.0 mph 19.6 mph N/A   Clear
1:32 AM 68.0 °F - 51.8 °F 56% 29.94 in 10.0 mi SSE 13.8 mph 20.7 mph N/A   Clear
1:52 AM 68.0 °F - 51.8 °F 56% 29.93 in 10.0 mi SSE 15.0 mph 20.7 mph N/A   Clear
2:13 AM 68.0 °F - 51.8 °F 56% 29.93 in 10.0 mi SSE 12.7 mph - N/A   Clear
2:33 AM 68.0 °F - 51.8 °F 56% 29.93 in 10.0 mi SSE 12.7 mph - N/A   Clear
2:52 AM 68.0 °F - 51.8 °F 56% 29.93 in 10.0 mi SSE 15.0 mph - N/A   Clear
3:13 AM 68.0 °F - 51.8 °F 56% 29.91 in 10.0 mi SSE 15.0 mph 18.4 mph N/A   Clear
3:33 AM 68.0 °F - 51.8 °F 56% 29.92 in 10.0 mi South 12.7 mph - N/A   Clear
3:52 AM 69.8 °F - 51.8 °F 53% 29.92 in 10.0 mi SSE 15.0 mph 20.7 mph N/A   Clear
4:13 AM 69.8 °F - 51.8 °F 53% 29.92 in 10.0 mi SSE 15.0 mph - N/A   Clear
4:33 AM 69.8 °F - 51.8 °F 53% 29.91 in 10.0 mi South 17.3 mph 21.9 mph N/A   Clear
4:52 AM 69.8 °F - 51.8 °F 53% 29.91 in 10.0 mi South 17.3 mph 21.9 mph N/A   Clear
5:13 AM 69.8 °F - 51.8 °F 53% 29.91 in 10.0 mi South 16.1 mph 24.2 mph N/A   Clear
5:33 AM 69.8 °F - 51.8 °F 53% 29.90 in 10.0 mi SSE 19.6 mph 25.3 mph N/A   Clear
5:52 AM 69.8 °F - 51.8 °F 53% 29.89 in 10.0 mi SSE 18.4 mph 23.0 mph N/A   Clear
6:13 AM 69.8 °F - 51.8 °F 53% 29.88 in 10.0 mi SSE 20.7 mph 27.6 mph N/A   Clear
6:33 AM 69.8 °F - 51.8 °F 53% 29.88 in 10.0 mi SSE 19.6 mph 26.5 mph N/A   Clear
6:52 AM 69.8 °F - 53.6 °F 56% 29.88 in 10.0 mi South 19.6 mph 24.2 mph N/A   Clear
7:13 AM 69.8 °F - 53.6 °F 56% 29.88 in 10.0 mi South 16.1 mph 24.2 mph N/A   Clear
7:33 AM 69.8 °F - 53.6 °F 56% 29.88 in 10.0 mi SSE 20.7 mph 26.5 mph N/A   Clear
7:52 AM 69.8 °F - 53.6 °F 56% 29.88 in 1.5 mi South 17.3 mph 26.5 mph N/A   Haze
8:13 AM 69.8 °F - 53.6 °F 56% 29.87 in 5.0 mi SSE 17.3 mph 24.2 mph N/A   Haze
8:33 AM 69.8 °F - 53.6 °F 56% 29.87 in 5.0 mi SSE 16.1 mph 24.2 mph N/A   Haze
8:52 AM 69.8 °F - 53.6 °F 56% 29.86 in 10.0 mi South 16.1 mph 23.0 mph N/A   Clear
9:13 AM 71.6 °F - 53.6 °F 53% 29.86 in 7.0 mi SSE 16.1 mph 23.0 mph N/A   Clear
9:32 AM 71.6 °F - 53.6 °F 53% 29.86 in 7.0 mi South 15.0 mph 23.0 mph N/A   Clear
9:53 AM 73.4 °F - 55.4 °F 53% 29.85 in 7.0 mi South 15.0 mph 20.7 mph N/A   Clear
10:13 AM 73.4 °F - 55.4 °F 53% 29.84 in 10.0 mi South 18.4 mph - N/A   Clear
10:32 AM 77.0 °F - 57.2 °F 50% 29.84 in 10.0 mi South 18.4 mph 23.0 mph N/A   Clear
11:13 AM 77.0 °F - 59.0 °F 54% 29.83 in 10.0 mi South 17.3 mph 23.0 mph N/A   Clear
11:32 AM 77.0 °F - 60.8 °F 57% 29.83 in 10.0 mi South 13.8 mph 20.7 mph N/A   Clear
11:53 AM 78.8 °F - 60.8 °F 54% 29.82 in 10.0 mi South 15.0 mph 20.7 mph N/A   Clear
12:13 PM 78.8 °F - 60.8 °F 54% 29.84 in 10.0 mi South 12.7 mph - N/A   Clear
12:32 PM 78.8 °F - 62.6 °F 57% 29.83 in 10.0 mi South 10.4 mph - N/A   Clear
12:53 PM 78.8 °F - 60.8 °F 54% 29.83 in 10.0 mi South 13.8 mph - N/A   Clear
1:13 PM 78.8 °F - 62.6 °F 57% 29.82 in 10.0 mi South 13.8 mph 19.6 mph N/A   Clear
1:32 PM 80.6 °F 81.8 °F 62.6 °F 54% 29.81 in 10.0 mi South 16.1 mph - N/A   Clear
1:53 PM 80.6 °F 81.8 °F 62.6 °F 54% 29.81 in 10.0 mi South 15.0 mph 21.9 mph N/A   Clear
2:13 PM 80.6 °F 81.8 °F 62.6 °F 54% 29.81 in 10.0 mi South 13.8 mph - N/A   Clear
2:32 PM 80.6 °F 81.8 °F 62.6 °F 54% 29.80 in 10.0 mi South 15.0 mph 18.4 mph N/A   Clear
2:53 PM 80.6 °F 81.8 °F 62.6 °F 54% 29.80 in 10.0 mi South 15.0 mph 18.4 mph N/A   Clear
3:12 PM 80.6 °F 81.8 °F 62.6 °F 54% 29.79 in 10.0 mi South 15.0 mph 18.4 mph N/A   Clear
3:33 PM 82.4 °F 83.4 °F 62.6 °F 51% 29.79 in 10.0 mi South 13.8 mph 21.9 mph N/A   Clear
3:53 PM 82.4 °F 83.4 °F 62.6 °F 51% 29.80 in 10.0 mi SSW 10.4 mph - N/A   Clear
4:12 PM 82.4 °F 83.9 °F 64.4 °F 54% 29.80 in 10.0 mi South 13.8 mph - N/A   Clear
4:32 PM 82.4 °F 83.9 °F 64.4 °F 54% 29.80 in 10.0 mi SSW 10.4 mph - N/A   Clear
4:53 PM 84.2 °F 85.6 °F 64.4 °F 51% 29.80 in 10.0 mi SSW 10.4 mph - N/A   Clear
5:12 PM 84.2 °F 85.6 °F 64.4 °F 51% 29.80 in 10.0 mi SW 6.9 mph - N/A   Clear
5:32 PM 86.0 °F 86.6 °F 62.6 °F 45% 29.81 in 10.0 mi WSW 11.5 mph - N/A   Scattered Clouds
5:53 PM 82.4 °F 83.4 °F 62.6 °F 51% 29.81 in 10.0 mi West 8.1 mph - N/A   Clear
6:12 PM 82.4 °F 83.4 °F 62.6 °F 51% 29.81 in 10.0 mi West 10.4 mph - N/A   Scattered Clouds
6:33 PM 82.4 °F 83.4 °F 62.6 °F 51% 29.82 in 10.0 mi WNW 10.4 mph - N/A   Scattered Clouds
6:53 PM 82.4 °F 83.4 °F 62.6 °F 51% 29.83 in 10.0 mi WNW 11.5 mph - N/A   Scattered Clouds
7:12 PM 80.6 °F 81.5 °F 60.8 °F 51% 29.83 in 10.0 mi NW 9.2 mph - N/A   Clear
7:33 PM 78.8 °F - 60.8 °F 54% 29.83 in 10.0 mi NW 9.2 mph - N/A   Clear
7:53 PM 77.0 °F - 60.8 °F 57% 29.83 in 10.0 mi NW 6.9 mph - N/A   Clear
8:12 PM 75.2 °F - 60.8 °F 61% 29.84 in 5.0 mi NW 5.8 mph - N/A   Haze
8:33 PM 73.4 °F - 62.6 °F 69% 29.85 in 10.0 mi NNW 4.6 mph - N/A   Clear
8:52 PM 73.4 °F - 60.8 °F 65% 29.86 in 10.0 mi NNW 3.5 mph - N/A   Clear
9:12 PM 71.6 °F - 60.8 °F 69% 29.87 in 10.0 mi NNW 3.5 mph - N/A   Clear
9:33 PM 71.6 °F - 60.8 °F 69% 29.88 in 10.0 mi NW 3.5 mph - N/A   Clear
9:52 PM 71.6 °F - 60.8 °F 69% 29.88 in 10.0 mi WNW 3.5 mph - N/A   Clear
10:12 PM 69.8 °F - 60.8 °F 73% 29.88 in 10.0 mi NW 4.6 mph - N/A   Clear
10:33 PM 69.8 °F - 60.8 °F 73% 29.89 in 10.0 mi NW 4.6 mph - N/A   Clear
10:53 PM 68.0 °F - 60.8 °F 78% 29.90 in 10.0 mi NW 5.8 mph - N/A   Clear
11:12 PM 68.0 °F - 59.0 °F 73% 29.90 in 10.0 mi NW 6.9 mph - N/A   Clear
11:33 PM 68.0 °F - 59.0 °F 73% 29.90 in 10.0 mi NW 4.6 mph - N/A   Clear
11:53 PM 66.2 °F - 59.0 °F 78% 29.90 in 10.0 mi Calm Calm - N/A   Clear